Weather History for Pocatello, ID

Change the Weather History Date:

Sunday, January 27, 2013

  Actual Average Record
Temperature  
Mean Temperature 31 °F 25 °F  
Max Temperature 36 °F 33 °F 53 °F (2003)
Min Temperature 25 °F 17 °F -10 °F (2009)
Degree Days  
Heating Degree Days 34 40  
Month to date heating degree days 1409 1100  
Since 1 July heating degree days 3966 4085  
Cooling Degree Days 0 0  
Month to date cooling degree days 0 0  
Year to date cooling degree days 0 0  
Moisture  
Dew Point 28 °F    
Average Humidity 88    
Maximum Humidity 100    
Minimum Humidity 75    
Precipitation  
Precipitation 0.30 in 0.03 in 0.93 in (1970)
Month to date precipitation 0.56 0.88  
Year to date precipitation 0.56 0.88  
Snow  
Snow 2.20 in - - ()
Month to date snowfall 6.5  
Since 1 July snowfall 26.1  
Snow Depth T in    
Sea Level Pressure  
Sea Level Pressure 29.86 in    
Wind  
Wind Speed 16 mph (SW)    
Max Wind Speed 23 mph    
Max Gust Speed 29 mph    
Visibility 5 miles    
Events Fog , Snow    
T = Trace of Precipitation, MM = Missing Value Source: NWS Daily Summary

Daily Weather History Graph

Daily Weather History Graph

Search for Another Location

Airport:

Trip Planner

Search our weather history database for the weather conditions in past years. The results will help you decide how hot, cold, wet, or windy it might be!

Date:

Astronomy

Jan. 27, 2013 Rise Set
Actual Time 7:49 AM MST 5:36 PM MST
Civil Twilight 7:19 AM MST 6:07 PM MST
Nautical Twilight 6:45 AM MST 6:41 PM MST
Astronomical Twilight 6:11 AM MST 7:15 PM MST
Moon 6:37 PM MST (1/27) 7:42 AM MST (1/27)
Length of Visible Light 10h 48m
Length of Day
9h 47m
Full, 100% of the Moon is Illuminated
Jan 27
Full
Feb 3
Last Quarter
Feb 10
New
Feb 17
First Quarter
Feb 25
Full

Hourly Weather History & Observations

Time (MST) Temp. Windchill Dew Point Humidity Pressure Visibility Wind Dir Wind Speed Gust Speed Precip Events Conditions
12:53 AM 35.1 °F 25.2 °F 33.1 °F 92% 29.83 in 10.0 mi SW 16.1 mph - 0.00 in   Overcast
12:59 AM 35.6 °F 25.5 °F 33.8 °F 93% 29.82 in 10.0 mi SW 17.3 mph - N/A   Overcast
1:12 AM 35.6 °F 26.6 °F 33.8 °F 93% 29.82 in 9.0 mi SW 13.8 mph - N/A   Overcast
1:26 AM 33.8 °F 24.8 °F 33.8 °F 100% 29.82 in 2.0 mi WSW 12.7 mph - N/A   Overcast
1:30 AM 33.8 °F 24.3 °F 33.8 °F 100% 29.82 in 0.8 mi WSW 13.8 mph - N/A   Overcast
1:53 AM 34.0 °F 24.2 °F 33.1 °F 96% 29.83 in 0.5 mi WSW 15.0 mph - N/A Fog Fog
2:16 AM 33.8 °F 22.5 °F 32.0 °F 93% 29.82 in 1.2 mi WSW 19.6 mph 24.2 mph N/A   Overcast
2:42 AM 32.0 °F 20.5 °F 30.2 °F 93% 29.82 in 3.0 mi WSW 18.4 mph - 0.00 in   Overcast
2:53 AM 32.0 °F 21.2 °F 30.9 °F 96% 29.84 in 3.0 mi WSW 16.1 mph 23.0 mph 0.00 in   Overcast
3:48 AM 32.0 °F 21.2 °F 30.2 °F 93% 29.82 in 8.0 mi SW 16.1 mph - 0.01 in   Overcast
3:53 AM 32.0 °F 21.6 °F 30.9 °F 96% 29.85 in 10.0 mi SW 15.0 mph - 0.01 in   Overcast
4:13 AM 32.0 °F 21.2 °F 30.2 °F 93% 29.83 in 6.0 mi SW 16.1 mph - 0.00 in Snow Light Snow
4:18 AM 32.0 °F 22.1 °F 30.2 °F 93% 29.83 in 5.0 mi SW 13.8 mph - 0.00 in Snow Light Snow
4:29 AM 32.0 °F 20.8 °F 30.2 °F 93% 29.83 in 2.5 mi SW 17.3 mph - 0.00 in Snow Light Snow
4:41 AM 32.0 °F 21.6 °F 30.2 °F 93% 29.82 in 1.5 mi SW 15.0 mph - 0.01 in Snow Light Snow
4:47 AM 30.2 °F 19.3 °F 30.2 °F 100% 29.82 in 0.8 mi SW 15.0 mph - 0.01 in Snow Light Snow
4:53 AM 30.9 °F 20.2 °F 30.0 °F 96% 29.86 in 0.5 mi SW 15.0 mph - 0.03 in Fog , Snow Snow
5:08 AM 30.2 °F 20.2 °F 30.2 °F 100% 29.82 in 2.0 mi SSW 12.7 mph - 0.01 in Snow Light Snow
5:13 AM 30.2 °F 19.8 °F 30.2 °F 100% 29.82 in 3.0 mi SW 13.8 mph - 0.01 in Snow Light Snow
5:25 AM 30.2 °F 19.3 °F 30.2 °F 100% 29.82 in 2.0 mi SW 15.0 mph - 0.01 in Snow Light Snow
5:40 AM 30.2 °F 20.2 °F 30.2 °F 100% 29.82 in 1.5 mi SW 12.7 mph - 0.02 in Snow Light Snow
5:53 AM 30.9 °F 20.7 °F 30.0 °F 96% 29.86 in 1.0 mi SW 13.8 mph - 0.03 in Snow Light Snow
6:09 AM 30.2 °F 19.8 °F 30.2 °F 100% 29.81 in 1.0 mi SW 13.8 mph - 0.01 in Snow Light Snow
6:53 AM 30.0 °F 19.5 °F 28.9 °F 96% 29.86 in 0.8 mi SSW 13.8 mph - 0.04 in Snow Light Snow
7:14 AM 30.2 °F 19.8 °F 28.4 °F 93% 29.82 in 0.8 mi SSW 13.8 mph - 0.03 in Snow Light Snow
7:53 AM 30.0 °F 19.5 °F 28.9 °F 96% 29.86 in 0.8 mi SW 13.8 mph - 0.06 in Snow Light Snow
8:12 AM 30.2 °F 19.3 °F 28.4 °F 93% 29.82 in 1.2 mi SW 15.0 mph - 0.01 in Snow Light Snow
8:53 AM 30.0 °F 20.5 °F 28.0 °F 92% 29.86 in 0.8 mi SSW 11.5 mph - 0.04 in Snow Light Snow
9:53 AM 28.9 °F 19.2 °F 28.0 °F 96% 29.87 in 0.8 mi SW 11.5 mph - 0.03 in Snow Light Snow
10:53 AM 30.0 °F 20.0 °F 28.0 °F 92% 29.86 in 0.5 mi SW 12.7 mph - 0.04 in Fog , Snow Snow
11:51 AM 30.2 °F 18.5 °F 26.6 °F 86% 29.82 in 3.0 mi WSW 17.3 mph - 0.02 in Snow Light Snow
11:53 AM 30.0 °F 18.7 °F 26.1 °F 85% 29.86 in 3.0 mi WSW 16.1 mph - 0.02 in   Overcast
12:53 PM 28.9 °F 17.3 °F 25.0 °F 85% 29.84 in 10.0 mi WSW 16.1 mph - N/A   Overcast
1:53 PM 28.9 °F 16.1 °F 25.0 °F 85% 29.85 in 10.0 mi WSW 19.6 mph - N/A   Overcast
2:53 PM 28.0 °F 16.5 °F 24.1 °F 85% 29.87 in 10.0 mi WSW 15.0 mph - N/A   Overcast
3:53 PM 28.0 °F 14.3 °F 24.1 °F 85% 29.88 in 10.0 mi WSW 21.9 mph - N/A   Overcast
4:53 PM 28.0 °F 15.3 °F 24.1 °F 85% 29.88 in 10.0 mi WSW 18.4 mph - N/A   Overcast
5:53 PM 28.0 °F 14.6 °F 23.0 °F 81% 29.90 in 10.0 mi WSW 20.7 mph 27.6 mph N/A   Overcast
6:53 PM 27.0 °F 14.3 °F 21.0 °F 78% 29.92 in 10.0 mi WSW 17.3 mph 24.2 mph N/A   Overcast
7:53 PM 27.0 °F 15.2 °F 21.9 °F 81% 29.94 in 10.0 mi SSW 15.0 mph - N/A   Overcast
8:53 PM 27.0 °F 14.7 °F 21.0 °F 78% 29.94 in 10.0 mi SSW 16.1 mph - N/A   Overcast
9:53 PM 26.1 °F 13.1 °F 19.9 °F 78% 29.96 in 10.0 mi SW 17.3 mph - N/A   Overcast
10:53 PM 26.1 °F 12.7 °F 19.9 °F 78% 29.96 in 10.0 mi SW 18.4 mph - N/A   Overcast
11:53 PM 26.1 °F 13.6 °F 19.0 °F 75% 29.97 in 10.0 mi SW 16.1 mph - N/A   Overcast